Miscellaneous Local Product
Issued by NWS Hastings, NE

Home | Current Version | Previous Version | Text Only | Print | Product List | Glossary On
Versions: 1 2 3 4 5 6 7 8 9 10 11 12 13 14 15 16 17 18 19 20 21 22 23 24 25 26 27 28 29 30 31 32 33 34 35 36 37 38 39 40 41 42 43 44 45 46 47 48 49 50
000
AXUS43 KGID 040602
MISGRI

GID CWA HOURLY WEATHER ROUNDUP
NATIONAL WEATHER SERVICE HASTINGS NE
100 AM CDT TUE AUG 04 2015

NOTE: "FAIR" INDICATES FEW OR NO CLOUDS BELOW 12,000 FEET WITH NO
SIGNIFICANT WEATHER AND/OR OBSTRUCTIONS TO VISIBILITY.

...SOUTH CENTRAL NEBRASKA...

CITY           SKY/WX    TMP DP  RH WIND       PRES   REMARKS
GRAND ISLAND   PTCLDY    68  64  87 E7        29.98S
HASTINGS       PTCLDY    71  67  87 E9        29.97S
KEARNEY        MOCLDY    68  64  88 E7        29.97S
ORD            MOCLDY    68  64  87 E7        29.97F
YORK           MOCLDY    66  66 100 E6        29.98S
AURORA         PTCLDY    67  66  99 E6        29.98S
LEXINGTON      MOCLDY    70  67  88 E7        29.97F
HOLDREGE       CLOUDY    69  66  88 E9        29.97S
HEBRON         PTCLDY    72  67  84 E7        29.95S

...NEBRASKA PANHANDLE...

CITY           SKY/WX    TMP DP  RH WIND       PRES   REMARKS
CHADRON        MOCLDY    69  61  75 SW7       29.91F
ALLIANCE       CLOUDY    71  65  81 S10       29.98F
SCOTTSBLUFF    CLOUDY    74  51  44 S6        29.99S
SIDNEY         MOCLDY    64  49  57 W6        30.04S

...WESTERN AND NORTH CENTRAL NEBRASKA...

CITY           SKY/WX    TMP DP  RH WIND       PRES   REMARKS
VALENTINE      NOT AVBL
AINSWORTH      MOCLDY    68  62  82 SE6       29.99S
ONEILL         PTCLDY    70  64  81 SE8       29.99S
BROKEN BOW     NOT AVBL
IMPERIAL       CLEAR     68  56  65 CALM      29.99S
NORTH PLATTE   MOCLDY    70  66  87 SE14      29.98S
MCCOOK         MOCLDY    72  70  93 E7        29.95S

...EASTERN NEBRASKA...

CITY           SKY/WX    TMP DP  RH WIND       PRES   REMARKS
NORFOLK        MOCLDY    67  64  90 SE5       29.98S
SO SIOUX CITY  CLOUDY    69  63  81 E3        29.98S
TEKAMAH        MOCLDY    71  67  87 NE3       29.97F
COLUMBUS       PTCLDY    64  59  82 CALM      29.99S
ALBION         MOCLDY    68  63  83 SE3       29.99S
OMAHA EPPLEY   CLOUDY    73  63  70 E6        29.98R
OFFUTT AFB     MOCLDY    70  65  85 NE6       29.96S
MILLARD        CLOUDY    74  65  74 E3        29.96F
LINCOLN        MOCLDY    74  64  71 NE6       29.98R THUNDER
NEBRASKA CITY  PTCLDY    70  62  75 E3        29.97S
BEATRICE       MOCLDY    72  68  87 E6        29.96S
FALLS CITY     PTCLDY    72  70  93 CALM      29.95R

...NORTHERN KANSAS...

CITY           SKY/WX    TMP DP  RH WIND       PRES   REMARKS
GOODLAND       MOCLDY    68  59  73 CALM      30.03R
HILL CITY      MOCLDY    77  67  71 S6        29.95R
NORTON         CLEAR     73  66  78 E5        29.95R
PHILLIPSBURG   CLEAR     77  72  83 NE8       29.93S
SMITH CENTER   CLEAR     73  70  88 E8        29.94S
HAYS           CLOUDY    75  63  64 S8        29.95R
RUSSELL        CLOUDY    78  68  71 S8        29.93R
CONCORDIA      MOCLDY    74  72  93 E5        29.93S
SALINA         MOCLDY    78  69  73 S7        29.92S
TOPEKA         CLEAR     75  71  87 E5        29.93R



USA.gov is the U.S. government's official web portal to all federal, state and local government web resources and services.